Fairbanks, AK

3:51 AM AKDT on September 18, 2019 (GMT -0800)
Fairbanks International

Weather History for PAFA - December, 1974

Change the Weather History Date:

Monday, December 30, 1974

  Actual Average Record
Temperature  
Mean Temperature -36 °F -6 °F  
Max Temperature -27 °F 3 °F 45 °F (2015)
Min Temperature -45 °F -15 °F -57 °F (1961)
Degree Days  
Heating Degree Days 101 71  
Month to date heating degree days 2069  
Since 1 July heating degree days 6200  
Cooling Degree Days 0 0  
Month to date cooling degree days 0  
Year to date cooling degree days 61  
Moisture  
Dew Point -42 °F    
Average Humidity 70    
Maximum Humidity 73    
Minimum Humidity 63    
Precipitation  
Precipitation 0.00 in 0.02 in 0.24 in (2016)
Month to date precipitation 0.62  
Year to date precipitation 10.79  
Snow  
Snow 0.00 in 0.40 in 3.50 in (2016)
Month to date snowfall 11.7  
Since 1 July snowfall 37.5  
Snow Depth -    
Sea Level Pressure  
Sea Level Pressure 29.41 in    
Wind  
Wind Speed 2 mph (SSW)    
Max Wind Speed 8 mph    
Max Gust Speed -    
Visibility 2 miles    
Events Fog , Snow    
T = Trace of Precipitation, MM = Missing Value Source: NWS Daily Summary

Daily Weather History Graph

Daily Weather History Graph

Search for Another Location

Airport or City:

Astronomy

Dec. 30, 1974 Rise Set
Actual Time 9:56 AM AHST 1:51 PM AHST
Civil Twilight 8:33 AM AHST 3:14 PM AHST
Nautical Twilight 7:22 AM AHST 4:25 PM AHST
Astronomical Twilight 6:21 AM AHST 5:26 PM AHST
Moon 5:34 PM AHST (12/30) 9:54 AM AHST (12/30)
Length of Visible Light 6h 40m
Length of Day
3h 54m
Waning Gibbous, 96% of the Moon is Illuminated
Dec 30
Waning Gibbous
Jan 4
Last Quarter
Jan 12
New
Jan 20
First Quarter
Jan 27
Full

Hourly Weather History & Observations

Time (AHST) Temp. Windchill Dew Point Humidity Pressure Visibility Wind Dir Wind Speed Gust Speed Precip Events Conditions
12:00 AM -45.9 °F - -54.0 °F 63% 29.67 in 0.2 mi Calm Calm - N/A Fog Fog
1:00 AM -45.0 °F - -52.1 °F 67% 29.65 in 0.2 mi Calm Calm - N/A Fog Fog
2:00 AM -44.0 °F -58.1 °F -51.0 °F 67% 29.66 in 0.2 mi WSW 3.5 mph - N/A Fog Fog
3:00 AM -42.0 °F - -49.0 °F 67% 29.66 in 0.2 mi Calm Calm - N/A Fog Fog
3:08 AM - - - N/A% 29.56 in 4.0 mi NNE 5.8 mph - N/A Fog Fog
4:00 AM - - - N/A% 29.64 in 4.0 mi Calm Calm - N/A Fog Fog
5:00 AM -38.0 °F - -45.0 °F 68% 29.62 in 0.8 mi Calm Calm - N/A Fog Fog
6:00 AM -36.9 °F - -43.1 °F 72% 29.62 in 0.8 mi Calm Calm - N/A Fog Fog
7:00 AM -38.0 °F -54.3 °F -45.0 °F 68% 29.60 in 4.0 mi North 4.6 mph - N/A Fog Fog
7:45 AM - - - N/A% 29.50 in 2.0 mi Calm Calm - N/A Fog Fog
8:00 AM -36.9 °F - -43.1 °F 72% 29.58 in 2.0 mi Calm Calm - N/A Fog Fog
9:00 AM - - - N/A% 29.57 in 1.0 mi WSW 3.5 mph - N/A Fog Fog
10:00 AM -38.0 °F -54.3 °F -45.0 °F 68% 29.55 in 0.5 mi North 4.6 mph - N/A Fog Fog
10:38 AM - - - N/A% 29.45 in 1.0 mi SSW 6.9 mph - N/A Fog Fog
11:00 AM -36.9 °F -50.1 °F -43.1 °F 72% 29.53 in 1.0 mi SSW 3.5 mph - N/A Fog Fog
11:18 AM - - - N/A% 29.43 in 2.0 mi Calm Calm - N/A Fog Fog
12:00 PM -35.0 °F -47.8 °F -42.0 °F 68% 29.50 in 2.0 mi SSW 3.5 mph - N/A Fog Fog
1:00 PM -35.0 °F -47.8 °F -42.0 °F 68% 29.44 in 2.0 mi South 3.5 mph - N/A Fog Fog
2:00 PM -33.0 °F -50.7 °F -38.9 °F 73% 29.41 in 2.0 mi SSW 5.8 mph - N/A Fog Fog
2:17 PM - - - N/A% 29.33 in 3.0 mi SSW 6.9 mph - N/A Fog Fog
3:00 PM -34.1 °F -52.0 °F -40.0 °F 73% 29.38 in 3.0 mi South 5.8 mph - N/A Fog Fog
4:00 PM -34.1 °F - -40.0 °F 73% 29.34 in 3.0 mi Calm Calm - N/A Fog Fog
5:00 PM -33.0 °F -50.7 °F -38.9 °F 73% 29.30 in 3.0 mi SSW 5.8 mph - N/A Fog Fog
6:00 PM -32.1 °F -51.6 °F -38.0 °F 73% 29.24 in 3.0 mi SSW 6.9 mph - N/A Fog Fog
7:00 PM -31.0 °F -50.3 °F -36.9 °F 73% 29.20 in 5.0 mi South 6.9 mph - N/A Fog Fog
8:00 PM -29.9 °F -42.0 °F -36.0 °F 72% 29.16 in 5.0 mi SSW 3.5 mph - N/A Fog Fog
9:00 PM -29.9 °F -42.0 °F -36.0 °F 72% 29.12 in 5.0 mi South 3.5 mph - N/A Fog Ice Crystals
10:00 PM -27.9 °F -44.7 °F -34.1 °F 73% 29.08 in 5.0 mi SSW 5.8 mph - N/A Fog Ice Crystals
10:36 PM - - - N/A% 28.97 in 3.0 mi WSW 3.5 mph - N/A   Unknown
11:00 PM -27.0 °F -41.5 °F -33.0 °F 73% 29.01 in 3.0 mi South 4.6 mph - N/A Snow Light Snow
11:30 PM - - - N/A% 28.94 in 2.0 mi SSW 8.1 mph - N/A   Unknown